Hof Plauen, Germany

9:54 AM CEST on May 28, 2017 (GMT +0200)
Hof-Plauen

Weather History for EDQM - November, 2012

Change the Weather History Date:

Saturday, November 10, 2012

  Actual Average Record
Temperature  
Mean Temperature 40 °F -  
Max Temperature 44 °F 36 °F 55 °F (2015)
Min Temperature 36 °F 30 °F 24 °F (2001)
Degree Days  
Heating Degree Days 26    
Moisture  
Dew Point 34 °F    
Average Humidity 80    
Maximum Humidity 93    
Minimum Humidity 73    
Precipitation  
Precipitation 0.08 in - - ()
Sea Level Pressure  
Sea Level Pressure 29.76 in    
Wind  
Wind Speed 9 mph ()    
Max Wind Speed 14 mph    
Max Gust Speed -    
Visibility 6.5 miles    
Events Rain    
Averages and records for this station are not official NWS values.
T = Trace of Precipitation, MM = Missing Value Source: Averaged Metar Reports

Daily Weather History Graph

Daily Weather History Graph

Search for Another Location

Airport or City:

Trip Planner

Search our weather history database for the weather conditions in past years. The results will help you decide how hot, cold, wet, or windy it might be!

Date:

Astronomy

Nov. 10, 2012 Rise Set
Actual Time 7:18 AM CET 4:33 PM CET
Civil Twilight 6:43 AM CET 5:08 PM CET
Nautical Twilight 6:04 AM CET 5:48 PM CET
Astronomical Twilight 5:25 AM CET 6:26 PM CET
Moon 2:42 AM CET (11/10) 2:30 PM CET (11/10)
Length of Visible Light 10h 25m
Length of Day
9h 15m
Waning Crescent, 16% of the Moon is Illuminated
Nov 10
Waning Crescent
Nov 13
New
Nov 20
First Quarter
Nov 28
Full
Dec 6
Last Quarter

Hourly Weather History & Observations

Time (CET) Temp. Windchill Dew Point Humidity Pressure Visibility Wind Dir Wind Speed Gust Speed Precip Events Conditions
12:00 AM 38 °F - 34 °F 80% 29.97 in 5 mi SSE 8.9 mph - -   Overcast
12:20 AM 37.4 °F 31.4 °F 32.0 °F 81% 29.92 in 6.2 mi SE 8.1 mph - N/A   Unknown
12:50 AM 35.6 °F 29.9 °F 32.0 °F 87% 29.89 in 6.2 mi SSE 6.9 mph - N/A   Partly Cloudy
1:00 AM 37 °F - 34 °F 86% 29.94 in 4 mi SSE 8.9 mph - -   Mist
1:20 AM 35.6 °F 28.0 °F 32.0 °F 87% 29.86 in 6.2 mi SSE 10.4 mph - N/A   Mostly Cloudy
1:50 AM 37.4 °F 31.4 °F 32.0 °F 81% 29.86 in 6.2 mi SSE 8.1 mph - N/A   Overcast
2:00 AM 37 °F - 34 °F 85% 29.92 in 4 mi SSE 6.7 mph - -   Mist
2:20 AM 35.6 °F 29.9 °F 32.0 °F 87% 29.86 in 6.2 mi SSE 6.9 mph - N/A   Mostly Cloudy
2:50 AM 37.4 °F 30.3 °F 32.0 °F 81% 29.83 in 6.2 mi SE 10.4 mph - N/A   Mostly Cloudy
3:00 AM 38 °F - 34 °F 80% 29.88 in 5 mi SSE 13.4 mph - -   Overcast
3:20 AM 37.4 °F 30.3 °F 32.0 °F 81% 29.83 in 6.2 mi SE 10.4 mph - N/A   Overcast
3:50 AM 37.4 °F 30.3 °F 32.0 °F 81% 29.83 in 6.2 mi SSE 10.4 mph - N/A   Overcast
4:20 AM 39.2 °F 32.5 °F 32.0 °F 75% 29.83 in 6.2 mi South 10.4 mph - N/A   Overcast
4:50 AM 39.2 °F 33.6 °F 32.0 °F 75% 29.80 in 6.2 mi SSE 8.1 mph - N/A   Overcast
5:00 AM 38 °F - 34 °F 80% 29.85 in 6 mi SSE 11.2 mph - -   Overcast
5:20 AM 39.2 °F 32.5 °F 32.0 °F 75% 29.80 in 6.2 mi SSE 10.4 mph - N/A   Overcast
5:50 AM 39.2 °F 32.5 °F 32.0 °F 75% 29.80 in 6.2 mi SSE 10.4 mph - N/A   Overcast
6:00 AM 38 °F - 34 °F 81% 29.84 in 7 mi SSE 11.2 mph - -   Partly Cloudy
6:20 AM 39.2 °F 33.0 °F 32.0 °F 75% 29.80 in 6.2 mi SSE 9.2 mph - N/A   Mostly Cloudy
6:50 AM 37.4 °F 30.8 °F 32.0 °F 81% 29.77 in 6.2 mi SSE 9.2 mph - N/A   Overcast
7:00 AM 38 °F - 34 °F 81% 29.83 in 11 mi SSE 8.9 mph - -   Mostly Cloudy
7:20 AM 37.4 °F 32.1 °F 32.0 °F 81% 29.77 in 6.2 mi South 6.9 mph - N/A   Overcast
7:50 AM 39.2 °F 34.2 °F 32.0 °F 75% 29.77 in 6.2 mi SE 6.9 mph - N/A   Overcast
8:00 AM 38 °F - 35 °F 83% 29.83 in 11 mi SSE 8.9 mph - -   Mostly Cloudy
8:20 AM 39.2 °F 33.6 °F 32.0 °F 75% 29.77 in 6.2 mi SE 8.1 mph - N/A   Scattered Clouds
8:50 AM 39.2 °F 33.6 °F 32.0 °F 75% 29.77 in - SE 8.1 mph - N/A   Clear
9:00 AM 39 °F - 35 °F 79% 29.83 in 12 mi SSE 11.2 mph - -   Partly Cloudy
9:20 AM 39.2 °F 32.5 °F 33.8 °F 81% 29.77 in - SE 10.4 mph - N/A   Clear
9:50 AM 41.0 °F 35.2 °F 33.8 °F 76% 29.77 in - SE 9.2 mph - N/A   Clear
10:20 AM 41.0 °F 35.2 °F 33.8 °F 76% 29.77 in - SE 9.2 mph - N/A   Clear
10:50 AM 41.0 °F 35.2 °F 33.8 °F 76% 29.74 in - SE 9.2 mph - N/A   Clear
11:00 AM 41 °F - 35 °F 73% 29.79 in 12 mi SSE 8.9 mph - -   Overcast
11:20 AM 41.0 °F 35.2 °F 33.8 °F 76% 29.74 in 6.2 mi SE 9.2 mph - N/A   Overcast
11:50 AM 41.0 °F 35.2 °F 33.8 °F 76% 29.74 in - SE 9.2 mph - N/A   Clear
12:00 PM 41 °F - 36 °F 76% 29.77 in 12 mi SSE 8.9 mph - -   Overcast
12:20 PM 41.0 °F 35.2 °F 33.8 °F 76% 29.71 in - SE 9.2 mph - N/A   Clear
12:50 PM 41.0 °F 34.7 °F 33.8 °F 76% 29.71 in - SE 10.4 mph - N/A   Clear
1:00 PM 42 °F - 37 °F 75% 29.73 in 11 mi SSE 8.9 mph - - Rain Light Rain
1:20 PM 42.8 °F 37.5 °F 35.6 °F 76% 29.68 in - SE 9.2 mph - N/A   Clear
1:50 PM 42.8 °F 37.0 °F 35.6 °F 76% 29.71 in - SSE 10.4 mph - N/A   Clear
2:00 PM 43 °F - 38 °F 75% 29.75 in 14 mi SSE 8.9 mph - - Rain Light Rain
2:20 PM 42.8 °F 38.0 °F 35.6 °F 76% 29.71 in 6.2 mi SSE 8.1 mph - N/A   Overcast
2:50 PM 42.8 °F 37.5 °F 35.6 °F 76% 29.71 in 6.2 mi SE 9.2 mph - N/A   Overcast
3:00 PM 42 °F - 38 °F 80% 29.75 in 12 mi SSE 8.9 mph - - Rain Light Rain
3:20 PM 42.8 °F 37.5 °F 35.6 °F 76% 29.71 in 6.2 mi ESE 9.2 mph - N/A Rain Light Rain
3:50 PM 42.8 °F 37.5 °F 35.6 °F 76% 29.68 in 6.2 mi SE 9.2 mph - N/A Rain Light Rain Showers
4:20 PM 41.0 °F 35.2 °F 35.6 °F 81% 29.68 in 6.2 mi SSE 9.2 mph - N/A   Overcast
4:50 PM 41.0 °F 34.7 °F 35.6 °F 81% 29.68 in 6.2 mi SSE 10.4 mph - N/A   Mostly Cloudy
5:00 PM 42 °F - 38 °F 80% 29.71 in 11 mi SSE 8.9 mph - -   Overcast
5:20 PM 41.0 °F 34.7 °F 35.6 °F 81% 29.68 in 6.2 mi SE 10.4 mph - N/A   Scattered Clouds
5:50 PM 39.2 °F 32.0 °F 33.8 °F 81% 29.68 in 5.0 mi SE 11.5 mph - N/A   Mostly Cloudy
6:00 PM 40 °F - 37 °F 85% 29.72 in 9 mi SSE 8.9 mph - -   Overcast
6:20 PM 39.2 °F 31.6 °F 33.8 °F 81% 29.68 in 5.6 mi SE 12.7 mph - N/A   Unknown
6:50 PM 39.2 °F 31.6 °F 33.8 °F 81% 29.68 in 5.0 mi SE 12.7 mph - N/A   Unknown
7:00 PM 38 °F - 36 °F 91% 29.72 in 6 mi SSE 8.9 mph - -   Partly Cloudy
7:20 PM 39.2 °F 32.0 °F 33.8 °F 81% 29.68 in 4.3 mi SE 11.5 mph - N/A   Mist
7:50 PM 39.2 °F 31.6 °F 33.8 °F 81% 29.68 in 4.3 mi SE 12.7 mph - N/A   Scattered Clouds
8:00 PM 38 °F - 36 °F 92% 29.72 in 5 mi SSE 13.4 mph - -   Partly Cloudy
8:20 PM 37.4 °F 28.9 °F 33.8 °F 87% 29.65 in 3.7 mi SE 13.8 mph - N/A   Mist
8:50 PM 37.4 °F 29.3 °F 35.6 °F 93% 29.65 in 3.7 mi SSE 12.7 mph - N/A   Mist
9:00 PM 39 °F - 37 °F 88% 29.71 in 4 mi SSE 11.2 mph - -   Mist
9:20 PM 39.2 °F 31.2 °F 35.6 °F 87% 29.68 in 3.7 mi SSE 13.8 mph - N/A   Mostly Cloudy
9:50 PM 39.2 °F 32.5 °F 35.6 °F 87% 29.68 in 4.3 mi SSE 10.4 mph - N/A   Overcast
10:20 PM 39.2 °F 32.0 °F 35.6 °F 87% 29.68 in 5.0 mi SSE 11.5 mph - N/A   Scattered Clouds
10:50 PM 41.0 °F 34.7 °F 35.6 °F 81% 29.71 in 5.6 mi South 10.4 mph - N/A   Unknown
11:00 PM 41 °F - 38 °F 83% 29.74 in 3 mi South 11.2 mph - - Rain Light Rain
11:20 PM 41.0 °F 35.8 °F 37.4 °F 87% 29.71 in 4.3 mi South 8.1 mph - N/A Rain Rain
11:50 PM 44.6 °F 39.2 °F 41.0 °F 87% 29.71 in 6.2 mi SSW 10.4 mph - N/A Rain Rain